,,Stat5,,Stat1,,Stat2,,Stat3,,Stat4,,Wind1,,Wind1,
time,status,PA1M_AVG,status,PR1M_SUM,status,RH1M_AVG,status,SR1M_AVG,status,TA1M_AVG,status,W1dAve1m,status,W1sAve1m,
2002-01-13, 00:00:00,VALID,917.043,VALID,0,VALID,95.8434,VALID,0.0509425,VALID,19.6272,VALID,98,VALID,0.828547,
2002-01-13, 00:01:00,VALID,917.05,VALID,0,VALID,95.8256,VALID,0.0169808,VALID,19.6468,VALID,109,VALID,0.307432,
2002-01-13, 00:02:00,VALID,917.059,VALID,0,VALID,95.453,VALID,0.0679233,VALID,19.6468,VALID,109,VALID,0,
2002-01-13, 00:03:00,VALID,917.076,VALID,0,VALID,95.3564,VALID,0.0339617,VALID,19.6433,VALID,312,VALID,0.110814,
2002-01-13, 00:04:00,VALID,917.088,VALID,0,VALID,95.2381,VALID,0.0849042,VALID,19.6237,VALID,309,VALID,0,
2002-01-13, 00:05:00,VALID,917.089,VALID,0,VALID,95.0067,VALID,0.0679233,VALID,19.5887,VALID,292,VALID,0.300881,
2002-01-13, 00:06:00,VALID,917.076,VALID,0,VALID,95.322,VALID,0.0679233,VALID,19.5757,VALID,284,VALID,0.257601,
2002-01-13, 00:07:00,VALID,917.056,VALID,0,VALID,95.5344,VALID,0.0679233,VALID,19.5661,VALID,274,VALID,0.23787,
2002-01-13, 00:08:00,VALID,917.051,VALID,0,VALID,95.7327,VALID,0.0509425,VALID,19.5566,VALID,252,VALID,0.0410156,
2002-01-13, 00:09:00,VALID,917.023,VALID,0,VALID,96.0901,VALID,0.0509425,VALID,19.5303,VALID,252,VALID,0.447846,
2002-01-13, 00:10:00,VALID,916.992,VALID,0,VALID,96.483,VALID,0.0339617,VALID,19.5176,VALID,266,VALID,0.646635,
2002-01-13, 00:11:00,VALID,916.974,VALID,0,VALID,96.7132,VALID,0.0509425,VALID,19.5015,VALID,267,VALID,0.378795,
2002-01-13, 00:12:00,VALID,916.958,VALID,0,VALID,96.9026,VALID,0.0339617,VALID,19.4759,VALID,267,VALID,0,
2002-01-13, 00:13:00,VALID,916.958,VALID,0,VALID,96.8925,VALID,0.0339617,VALID,19.4694,VALID,267,VALID,0,
2002-01-13, 00:14:00,VALID,916.971,VALID,0,VALID,96.6712,VALID,0,VALID,19.4378,VALID,267,VALID,0,
2002-01-13, 00:15:00,VALID,916.976,VALID,0,VALID,96.5122,VALID,0.0169808,VALID,19.3593,VALID,271,VALID,0,
2002-01-13, 00:16:00,VALID,916.959,VALID,0,VALID,96.263,VALID,0,VALID,19.3014,VALID,18,VALID,0,
2002-01-13, 00:17:00,VALID,916.944,VALID,0,VALID,96.3571,VALID,0.0169808,VALID,19.25,VALID,20,VALID,0,
2002-01-13, 00:18:00,VALID,916.941,VALID,0,VALID,96.4016,VALID,0.0509425,VALID,19.2078,VALID,22,VALID,0.23117,
2002-01-13, 00:19:00,VALID,916.921,VALID,0,VALID,96.2884,VALID,0.0509425,VALID,19.1303,VALID,22,VALID,0.747991,
2002-01-13, 00:20:00,VALID,916.907,VALID,0,VALID,96.1295,VALID,0.0849042,VALID,19.0585,VALID,24,VALID,0.865076,
2002-01-13, 00:21:00,VALID,916.892,VALID,0,VALID,95.893,VALID,0.0339617,VALID,18.9492,VALID,22,VALID,0.917634,
2002-01-13, 00:22:00,VALID,916.899,VALID,0,VALID,96.0468,VALID,0.0339617,VALID,18.856,VALID,23,VALID,0.858724,
2002-01-13, 00:23:00,VALID,916.895,VALID,0,VALID,96.4728,VALID,0.0169808,VALID,18.8403,VALID,31,VALID,0.545072,
2002-01-13, 00:24:00,VALID,916.891,VALID,0,VALID,96.8136,VALID,0.0169808,VALID,18.8011,VALID,47,VALID,0.428348,
2002-01-13, 00:25:00,VALID,916.899,VALID,0,VALID,97.1709,VALID,0.0849042,VALID,18.8235,VALID,55,VALID,0.389569,
2002-01-13, 00:26:00,VALID,916.88,VALID,0,VALID,97.5677,VALID,0.0169808,VALID,18.8558,VALID,66,VALID,0.449107,
2002-01-13, 00:27:00,VALID,916.872,VALID,0,VALID,97.8195,VALID,0.0339617,VALID,18.9305,VALID,61,VALID,0.60612,
2002-01-13, 00:28:00,VALID,916.855,VALID,0,VALID,97.9924,VALID,0.0339617,VALID,18.9787,VALID,47,VALID,0.49349,
2002-01-13, 00:29:00,VALID,916.839,VALID,0,VALID,97.8932,VALID,0.0679233,VALID,18.9949,VALID,55,VALID,0.410373,
2002-01-13, 00:30:00,VALID,916.826,VALID,0,VALID,97.6898,VALID,0.0169808,VALID,18.9593,VALID,59,VALID,0.527138,
2002-01-13, 00:31:00,VALID,916.82,VALID,0,VALID,97.6796,VALID,0.0169808,VALID,18.9171,VALID,59,VALID,0.634549,
2002-01-13, 00:32:00,VALID,916.795,VALID,0,VALID,97.8106,VALID,0.0169808,VALID,18.9236,VALID,58,VALID,0.6148,
2002-01-13, 00:33:00,VALID,916.774,VALID,0,VALID,97.7978,VALID,0,VALID,18.9397,VALID,58,VALID,0.594551,
2002-01-13, 00:34:00,VALID,916.756,VALID,0,VALID,97.5651,VALID,0.0339617,VALID,18.9044,VALID,58,VALID,0.64933,
2002-01-13, 00:35:00,VALID,916.736,VALID,0,VALID,97.7304,VALID,0.0339617,VALID,18.8987,VALID,59,VALID,0.821157,
2002-01-13, 00:36:00,VALID,916.695,VALID,0,VALID,97.897,VALID,0.0679233,VALID,18.9308,VALID,61,VALID,0.934152,
2002-01-13, 00:37:00,VALID,916.666,VALID,0,VALID,97.9987,VALID,0.0169808,VALID,18.9561,VALID,61,VALID,0.880208,
2002-01-13, 00:38:00,VALID,916.639,VALID,0,VALID,98.0776,VALID,0,VALID,18.9854,VALID,62,VALID,0.691106,
2002-01-13, 00:39:00,VALID,916.622,VALID,0,VALID,98.0585,VALID,0.0169808,VALID,19.011,VALID,63,VALID,0.494643,
2002-01-13, 00:40:00,VALID,916.587,VALID,0,VALID,97.719,VALID,0.0169808,VALID,18.9693,VALID,64,VALID,0.347762,
2002-01-13, 00:41:00,VALID,916.581,VALID,0,VALID,97.6198,VALID,0.0169808,VALID,18.9308,VALID,64,VALID,0.145982,
2002-01-13, 00:42:00,VALID,916.56,VALID,0,VALID,97.4507,VALID,0,VALID,18.8793,VALID,64,VALID,0,
2002-01-13, 00:43:00,VALID,916.556,VALID,0,VALID,97.3464,VALID,0.0339617,VALID,18.8309,VALID,64,VALID,0,
2002-01-13, 00:44:00,VALID,916.551,VALID,0,VALID,97.4303,VALID,0.0169808,VALID,18.8113,VALID,64,VALID,0,
2002-01-13, 00:45:00,VALID,916.552,VALID,0,VALID,97.5283,VALID,0.0169808,VALID,18.8138,VALID,64,VALID,0,
2002-01-13, 00:46:00,VALID,916.556,VALID,0,VALID,97.6096,VALID,0.0169808,VALID,18.8662,VALID,64,VALID,0,
2002-01-13, 00:47:00,VALID,916.566,VALID,0,VALID,97.5333,VALID,0.0169808,VALID,18.8498,VALID,64,VALID,0,
2002-01-13, 00:48:00,VALID,916.56,VALID,0,VALID,97.4443,VALID,0.0339617,VALID,18.8237,VALID,138,VALID,0,
2002-01-13, 00:49:00,VALID,916.564,VALID,0,VALID,97.5092,VALID,0.0509425,VALID,18.8309,VALID,162,VALID,0,
2002-01-13, 00:50:00,VALID,916.561,VALID,0,VALID,97.4914,VALID,0.0169808,VALID,18.8314,VALID,162,VALID,0,
2002-01-13, 00:51:00,VALID,916.557,VALID,0,VALID,97.2867,VALID,-0.0169808,VALID,18.7728,VALID,164,VALID,0.0223214,
2002-01-13, 00:52:00,VALID,916.545,VALID,0,VALID,97.1849,VALID,0.0169808,VALID,18.7179,VALID,174,VALID,0.425564,
2002-01-13, 00:53:00,VALID,916.537,VALID,0,VALID,97.0781,VALID,0.0169808,VALID,18.6664,VALID,168,VALID,0.664864,
2002-01-13, 00:54:00,VALID,916.511,VALID,0,VALID,97.1557,VALID,0,VALID,18.611,VALID,169,VALID,0.717634,
2002-01-13, 00:55:00,VALID,916.498,VALID,0,VALID,97.3413,VALID,0,VALID,18.5979,VALID,156,VALID,0.76098,
2002-01-13, 00:56:00,VALID,916.486,VALID,0,VALID,97.6058,VALID,0,VALID,18.6145,VALID,153,VALID,0.801786,
2002-01-13, 00:57:00,VALID,916.472,VALID,0,VALID,97.8271,VALID,0,VALID,18.6535,VALID,148,VALID,0.635417,
2002-01-13, 00:58:00,VALID,916.482,VALID,0,VALID,98.0496,VALID,0.0509425,VALID,18.7019,VALID,147,VALID,0.405816,
2002-01-13, 00:59:00,VALID,916.471,VALID,0,VALID,98.1526,VALID,0,VALID,18.7472,VALID,143,VALID,0.616319,
2002-01-13, 01:00:00,VALID,916.471,VALID,0,VALID,98.2505,VALID,0.0339617,VALID,18.7661,VALID,118,VALID,0.681538,
2002-01-13, 01:01:00,VALID,916.464,VALID,0,VALID,98.398,VALID,0.0169808,VALID,18.844,VALID,102,VALID,0.822266,
2002-01-13, 01:02:00,VALID,916.483,VALID,0,VALID,98.3205,VALID,0.0509425,VALID,18.8629,VALID,90,VALID,0.817491,
2002-01-13, 01:03:00,VALID,916.477,VALID,0,VALID,98.117,VALID,0.0509425,VALID,18.8013,VALID,81,VALID,1.07192,
2002-01-13, 01:04:00,VALID,916.476,VALID,0,VALID,98.2772,VALID,0.0169808,VALID,18.7956,VALID,83,VALID,1.18326,
2002-01-13, 01:05:00,VALID,916.473,VALID,0,VALID,98.4858,VALID,0.0509425,VALID,18.8343,VALID,99,VALID,1.05152,
2002-01-13, 01:06:00,VALID,916.482,VALID,0,VALID,98.4616,VALID,0.0339617,VALID,18.8763,VALID,112,VALID,0.7875,
2002-01-13, 01:07:00,VALID,916.468,VALID,0,VALID,98.3637,VALID,0,VALID,18.8537,VALID,129,VALID,0.817274,
2002-01-13, 01:08:00,VALID,916.458,VALID,0,VALID,98.5048,VALID,0.0169808,VALID,18.8503,VALID,130,VALID,1.04948,
2002-01-13, 01:09:00,VALID,916.435,VALID,0,VALID,98.4196,VALID,0,VALID,18.8639,VALID,121,VALID,1.1,
2002-01-13, 01:10:00,VALID,916.432,VALID,0,VALID,98.3268,VALID,0.0339617,VALID,18.8316,VALID,119,VALID,0.925676,
2002-01-13, 01:11:00,VALID,916.417,VALID,0,VALID,98.4362,VALID,0.0169808,VALID,18.8113,VALID,118,VALID,0.968527,
2002-01-13, 01:12:00,VALID,916.412,VALID,0,VALID,98.5926,VALID,0.0339617,VALID,18.847,VALID,107,VALID,1.1263,
2002-01-13, 01:13:00,VALID,916.408,VALID,0,VALID,98.4476,VALID,0.0339617,VALID,18.8468,VALID,85,VALID,0.720486,
2002-01-13, 01:14:00,VALID,916.4,VALID,0,VALID,98.1017,VALID,0,VALID,18.7345,VALID,72,VALID,0.6977,
2002-01-13, 01:15:00,VALID,916.406,VALID,0,VALID,98.1043,VALID,0.0169808,VALID,18.6572,VALID,71,VALID,0.877056,
2002-01-13, 01:16:00,VALID,916.411,VALID,0,VALID,98.3802,VALID,0,VALID,18.6731,VALID,75,VALID,0.858507,
2002-01-13, 01:17:00,VALID,916.409,VALID,0,VALID,98.4044,VALID,0.0169808,VALID,18.6925,VALID,76,VALID,0.704644,
2002-01-13, 01:18:00,VALID,916.436,VALID,0,VALID,98.4553,VALID,-0.0169808,VALID,18.722,VALID,83,VALID,0.572917,
2002-01-13, 01:19:00,VALID,916.427,VALID,0,VALID,98.2861,VALID,0,VALID,18.6833,VALID,83,VALID,0.259375,
2002-01-13, 01:20:00,VALID,916.431,VALID,0,VALID,98.0801,VALID,0,VALID,18.5889,VALID,83,VALID,0.102618,
2002-01-13, 01:21:00,VALID,916.427,VALID,0,VALID,98.0954,VALID,-0.0169808,VALID,18.5504,VALID,83,VALID,0,
2002-01-13, 01:22:00,VALID,916.424,VALID,0,VALID,98.0865,VALID,0.0169808,VALID,18.5149,VALID,83,VALID,0,
2002-01-13, 01:23:00,VALID,916.399,VALID,0,VALID,98.0572,VALID,0,VALID,18.4794,VALID,83,VALID,0,
2002-01-13, 01:24:00,VALID,916.372,VALID,0,VALID,98.1068,VALID,0,VALID,18.4761,VALID,83,VALID,0,
2002-01-13, 01:25:00,VALID,916.349,VALID,0,VALID,98.1908,VALID,0.0169808,VALID,18.4955,VALID,83,VALID,0,
2002-01-13, 01:26:00,VALID,916.334,VALID,0,VALID,98.1768,VALID,0,VALID,18.489,VALID,83,VALID,0,
2002-01-13, 01:27:00,VALID,916.32,VALID,0,VALID,98.2442,VALID,0.0509425,VALID,18.5022,VALID,83,VALID,0.267361,
2002-01-13, 01:28:00,VALID,916.312,VALID,0,VALID,98.2505,VALID,0.0169808,VALID,18.5054,VALID,82,VALID,0.638889,
2002-01-13, 01:29:00,VALID,916.31,VALID,0,VALID,98.2543,VALID,0.0169808,VALID,18.4925,VALID,78,VALID,0.798611,
2002-01-13, 01:30:00,VALID,916.315,VALID,0,VALID,98.426,VALID,0.0679233,VALID,18.5181,VALID,78,VALID,0.862459,
2002-01-13, 01:31:00,VALID,916.326,VALID,0,VALID,98.6562,VALID,0,VALID,18.5891,VALID,93,VALID,1.19575,
2002-01-13, 01:32:00,VALID,916.324,VALID,0,VALID,98.571,VALID,0,VALID,18.6376,VALID,121,VALID,0.920139,
2002-01-13, 01:33:00,VALID,916.318,VALID,0,VALID,98.5125,VALID,0,VALID,18.6217,VALID,115,VALID,1.01603,
2002-01-13, 01:34:00,VALID,916.313,VALID,0,VALID,98.604,VALID,0.0169808,VALID,18.6374,VALID,110,VALID,1.00067,
2002-01-13, 01:35:00,VALID,916.293,VALID,0,VALID,98.6435,VALID,0.0169808,VALID,18.683,VALID,109,VALID,1.01161,
2002-01-13, 01:36:00,VALID,916.272,VALID,0,VALID,98.6244,VALID,0,VALID,18.7056,VALID,110,VALID,0.937054,
2002-01-13, 01:37:00,VALID,916.259,VALID,0,VALID,98.5913,VALID,-0.0509425,VALID,18.7165,VALID,108,VALID,0.877604,
2002-01-13, 01:38:00,VALID,916.262,VALID,0,VALID,98.5315,VALID,-0.118866,VALID,18.7165,VALID,105,VALID,0.754207,
2002-01-13, 01:39:00,VALID,916.266,VALID,0,VALID,98.4756,VALID,-0.101885,VALID,18.7269,VALID,113,VALID,0.969196,
2002-01-13, 01:40:00,VALID,916.269,VALID,0,VALID,98.4082,VALID,-0.101885,VALID,18.7038,VALID,122,VALID,0.984797,
2002-01-13, 01:41:00,VALID,916.285,VALID,0,VALID,98.4044,VALID,-0.0849042,VALID,18.6939,VALID,125,VALID,1.05915,
2002-01-13, 01:42:00,VALID,916.295,VALID,0,VALID,98.3828,VALID,-0.0849042,VALID,18.7105,VALID,109,VALID,1.02799,
2002-01-13, 01:43:00,VALID,916.294,VALID,0,VALID,98.4489,VALID,-0.0849042,VALID,18.7232,VALID,101,VALID,1.06141,
2002-01-13, 01:44:00,VALID,916.279,VALID,0,VALID,98.3637,VALID,-0.101885,VALID,18.7458,VALID,82,VALID,0.962457,
2002-01-13, 01:45:00,VALID,916.275,VALID,0,VALID,98.3319,VALID,-0.0679233,VALID,18.7518,VALID,93,VALID,1.05983,
2002-01-13, 01:46:00,VALID,916.252,VALID,0,VALID,98.2989,VALID,-0.0679233,VALID,18.7975,VALID,87,VALID,0.945095,
2002-01-13, 01:47:00,VALID,916.225,VALID,0,VALID,98.2658,VALID,-0.101885,VALID,18.8139,VALID,102,VALID,1.00217,
2002-01-13, 01:48:00,VALID,916.21,VALID,0,VALID,98.2149,VALID,-0.0849042,VALID,18.8328,VALID,121,VALID,1.39523,
2002-01-13, 01:49:00,VALID,916.193,VALID,0,VALID,98.1412,VALID,-0.0679233,VALID,18.8559,VALID,114,VALID,1.08036,
2002-01-13, 01:50:00,VALID,916.189,VALID,0,VALID,98.0089,VALID,-0.0849042,VALID,18.8556,VALID,106,VALID,0.786951,
2002-01-13, 01:51:00,VALID,916.173,VALID,0,VALID,98.0013,VALID,-0.0849042,VALID,18.8559,VALID,120,VALID,0.96317,
2002-01-13, 01:52:00,VALID,916.17,VALID,0,VALID,97.9873,VALID,-0.0679233,VALID,18.8556,VALID,108,VALID,0.86263,
2002-01-13, 01:53:00,VALID,916.157,VALID,0,VALID,97.8805,VALID,-0.101885,VALID,18.8392,VALID,108,VALID,0.679888,
2002-01-13, 01:54:00,VALID,916.139,VALID,0,VALID,97.8385,VALID,-0.0849042,VALID,18.8298,VALID,126,VALID,0.444866,
2002-01-13, 01:55:00,VALID,916.12,VALID,0,VALID,97.8703,VALID,-0.101885,VALID,18.8102,VALID,115,VALID,0.590583,
2002-01-13, 01:56:00,VALID,916.091,VALID,0,VALID,97.9225,VALID,-0.101885,VALID,18.7839,VALID,106,VALID,1.04219,
2002-01-13, 01:57:00,VALID,916.067,VALID,0,VALID,97.9911,VALID,-0.101885,VALID,18.7945,VALID,111,VALID,1.16667,
2002-01-13, 01:58:00,VALID,916.062,VALID,0,VALID,98.0827,VALID,-0.0679233,VALID,18.791,VALID,115,VALID,1.3954,
2002-01-13, 01:59:00,VALID,916.044,VALID,0,VALID,98.103,VALID,-0.0849042,VALID,18.8039,VALID,103,VALID,1.17535,
2002-01-13, 02:00:00,VALID,916.052,VALID,0,VALID,98.1539,VALID,-0.101885,VALID,18.797,VALID,99,VALID,1.17722,
2002-01-13, 02:01:00,VALID,916.047,VALID,0,VALID,98.1285,VALID,-0.101885,VALID,18.8166,VALID,92,VALID,1.12956,
2002-01-13, 02:02:00,VALID,916.041,VALID,0,VALID,98.0954,VALID,-0.0679233,VALID,18.8298,VALID,94,VALID,1.02669,
2002-01-13, 02:03:00,VALID,916.04,VALID,0,VALID,98.07,VALID,-0.0849042,VALID,18.8065,VALID,104,VALID,1.10998,
2002-01-13, 02:04:00,VALID,916.025,VALID,0,VALID,98.056,VALID,-0.101885,VALID,18.8231,VALID,104,VALID,1.23504,
2002-01-13, 02:05:00,VALID,916.001,VALID,0,VALID,98.1221,VALID,-0.0679233,VALID,18.8586,VALID,106,VALID,1.52386,
2002-01-13, 02:06:00,VALID,915.977,VALID,0,VALID,97.939,VALID,-0.0849042,VALID,18.9103,VALID,107,VALID,1.17232,
2002-01-13, 02:07:00,VALID,915.944,VALID,0,VALID,97.7622,VALID,-0.0679233,VALID,18.9391,VALID,116,VALID,1.1747,
2002-01-13, 02:08:00,VALID,915.938,VALID,0,VALID,97.5651,VALID,-0.0509425,VALID,18.9585,VALID,105,VALID,1.09936,
2002-01-13, 02:09:00,VALID,915.92,VALID,0,VALID,97.4342,VALID,-0.0339617,VALID,18.9575,VALID,111,VALID,1.31004,
2002-01-13, 02:10:00,VALID,915.92,VALID,0,VALID,97.3299,VALID,-0.0679233,VALID,19.0005,VALID,112,VALID,1.04793,
2002-01-13, 02:11:00,VALID,915.935,VALID,0,VALID,97.2078,VALID,-0.0509425,VALID,19.0159,VALID,131,VALID,0.839286,
2002-01-13, 02:12:00,VALID,915.951,VALID,0,VALID,97.0896,VALID,0,VALID,19.0457,VALID,141,VALID,1.06706,
2002-01-13, 02:13:00,VALID,915.954,VALID,0,VALID,96.9726,VALID,-0.0169808,VALID,19.0678,VALID,138,VALID,1.22635,
2002-01-13, 02:14:00,VALID,915.963,VALID,0,VALID,96.8149,VALID,-0.0339617,VALID,19.084,VALID,136,VALID,1.08181,
2002-01-13, 02:15:00,VALID,915.955,VALID,0,VALID,96.6686,VALID,0,VALID,19.1034,VALID,135,VALID,1.15337,
2002-01-13, 02:16:00,VALID,915.945,VALID,0,VALID,96.5784,VALID,-0.0169808,VALID,19.0934,VALID,138,VALID,1.27018,
2002-01-13, 02:17:00,VALID,915.921,VALID,0,VALID,96.5491,VALID,0,VALID,19.087,VALID,136,VALID,1.26259,
2002-01-13, 02:18:00,VALID,915.891,VALID,0,VALID,96.5682,VALID,-0.0339617,VALID,19.0681,VALID,131,VALID,1.27183,
2002-01-13, 02:19:00,VALID,915.856,VALID,0,VALID,96.6928,VALID,-0.0169808,VALID,19.0097,VALID,128,VALID,1.10938,
2002-01-13, 02:20:00,VALID,915.828,VALID,0,VALID,96.9039,VALID,-0.0169808,VALID,18.994,VALID,139,VALID,1.39611,
2002-01-13, 02:21:00,VALID,915.804,VALID,0,VALID,97.0311,VALID,0,VALID,18.9806,VALID,139,VALID,1.44911,
2002-01-13, 02:22:00,VALID,915.787,VALID,0,VALID,97.0819,VALID,0,VALID,18.9776,VALID,145,VALID,1.22852,
2002-01-13, 02:23:00,VALID,915.764,VALID,0,VALID,97.1175,VALID,0,VALID,18.961,VALID,152,VALID,1.3095,
2002-01-13, 02:24:00,VALID,915.752,VALID,0,VALID,97.1112,VALID,0,VALID,18.9546,VALID,150,VALID,1.17612,
2002-01-13, 02:25:00,VALID,915.744,VALID,0,VALID,97.1074,VALID,-0.0169808,VALID,18.9546,VALID,145,VALID,1.13408,
2002-01-13, 02:26:00,VALID,915.736,VALID,0,VALID,97.073,VALID,0,VALID,18.9319,VALID,141,VALID,1.04799,
2002-01-13, 02:27:00,VALID,915.728,VALID,0,VALID,97.0679,VALID,-0.0169808,VALID,18.922,VALID,135,VALID,1.01411,
2002-01-13, 02:28:00,VALID,915.727,VALID,0,VALID,96.9955,VALID,0,VALID,18.9255,VALID,116,VALID,0.839627,
2002-01-13, 02:29:00,VALID,915.73,VALID,0,VALID,96.8988,VALID,-0.0169808,VALID,18.9253,VALID,123,VALID,0.797309,
2002-01-13, 02:30:00,VALID,915.73,VALID,0,VALID,96.7856,VALID,0,VALID,18.9322,VALID,120,VALID,0.946546,
2002-01-13, 02:31:00,VALID,915.737,VALID,0,VALID,96.6941,VALID,0,VALID,18.9384,VALID,116,VALID,0.69553,
2002-01-13, 02:32:00,VALID,915.733,VALID,0,VALID,96.5974,VALID,0.0169808,VALID,18.9446,VALID,124,VALID,1.09223,
2002-01-13, 02:33:00,VALID,915.727,VALID,0,VALID,96.483,VALID,0,VALID,18.961,VALID,122,VALID,0.904447,
2002-01-13, 02:34:00,VALID,915.729,VALID,0,VALID,96.4385,VALID,0,VALID,18.9834,VALID,125,VALID,0.800893,
2002-01-13, 02:35:00,VALID,915.704,VALID,0,VALID,96.3787,VALID,0,VALID,18.9931,VALID,121,VALID,0.918074,
2002-01-13, 02:36:00,VALID,915.681,VALID,0,VALID,96.3558,VALID,0,VALID,19.0058,VALID,121,VALID,0.85692,
2002-01-13, 02:37:00,VALID,915.656,VALID,0,VALID,96.2503,VALID,0,VALID,19.0284,VALID,122,VALID,0.850929,
2002-01-13, 02:38:00,VALID,915.63,VALID,0,VALID,96.221,VALID,-0.0169808,VALID,19.0351,VALID,124,VALID,0.71895,
2002-01-13, 02:39:00,VALID,915.596,VALID,0,VALID,96.2923,VALID,0,VALID,19.0381,VALID,109,VALID,1.22723,
2002-01-13, 02:40:00,VALID,915.561,VALID,0,VALID,96.2338,VALID,0,VALID,19.0482,VALID,122,VALID,0.919552,
2002-01-13, 02:41:00,VALID,915.554,VALID,0,VALID,96.2223,VALID,-0.0169808,VALID,19.051,VALID,124,VALID,1.125,
2002-01-13, 02:42:00,VALID,915.546,VALID,0,VALID,96.1994,VALID,0,VALID,19.0743,VALID,127,VALID,0.588108,
2002-01-13, 02:43:00,VALID,915.541,VALID,0,VALID,96.132,VALID,0,VALID,19.0704,VALID,128,VALID,0.888889,
2002-01-13, 02:44:00,VALID,915.536,VALID,0,VALID,96.0875,VALID,0,VALID,19.0999,VALID,112,VALID,0.580295,
2002-01-13, 02:45:00,VALID,915.529,VALID,0,VALID,95.8879,VALID,0,VALID,19.0964,VALID,84,VALID,0.30736,
2002-01-13, 02:46:00,VALID,915.53,VALID,0,VALID,95.7684,VALID,0,VALID,19.0867,VALID,85,VALID,0.284939,
2002-01-13, 02:47:00,VALID,915.531,VALID,0,VALID,95.8052,VALID,0,VALID,19.0766,VALID,95,VALID,0.438368,
2002-01-13, 02:48:00,VALID,915.525,VALID,0,VALID,95.8078,VALID,0.0169808,VALID,19.0905,VALID,82,VALID,0.455929,
2002-01-13, 02:49:00,VALID,915.529,VALID,0,VALID,95.7912,VALID,0,VALID,19.0775,VALID,95,VALID,0.472545,
2002-01-13, 02:50:00,VALID,915.53,VALID,0,VALID,95.8485,VALID,0,VALID,19.0646,VALID,89,VALID,0.224451,
2002-01-13, 02:51:00,VALID,915.539,VALID,0,VALID,95.8586,VALID,-0.0169808,VALID,19.0641,VALID,96,VALID,0,
2002-01-13, 02:52:00,VALID,915.548,VALID,0,VALID,95.8675,VALID,0,VALID,19.0549,VALID,97,VALID,0,
2002-01-13, 02:53:00,VALID,915.557,VALID,0,VALID,95.9095,VALID,0,VALID,19.0385,VALID,106,VALID,0,
2002-01-13, 02:54:00,VALID,915.561,VALID,0,VALID,95.9362,VALID,-0.0339617,VALID,19.0261,VALID,148,VALID,0.460938,
2002-01-13, 02:55:00,VALID,915.551,VALID,0,VALID,95.9883,VALID,-0.0169808,VALID,19.0095,VALID,159,VALID,0.299198,
2002-01-13, 02:56:00,VALID,915.544,VALID,0,VALID,96.0596,VALID,0.0169808,VALID,18.9799,VALID,158,VALID,0.599107,
2002-01-13, 02:57:00,VALID,915.536,VALID,0,VALID,96.1269,VALID,0.0169808,VALID,18.9866,VALID,136,VALID,0.446615,
2002-01-13, 02:58:00,VALID,915.517,VALID,0,VALID,95.9705,VALID,0,VALID,18.9541,VALID,91,VALID,0.193359,
2002-01-13, 02:59:00,VALID,915.506,VALID,0,VALID,95.9705,VALID,0,VALID,18.9096,VALID,83,VALID,0.434462,
2002-01-13, 03:00:00,VALID,915.475,VALID,0,VALID,96.1651,VALID,0,VALID,18.8907,VALID,54,VALID,0.655428,
2002-01-13, 03:01:00,VALID,915.463,VALID,0,VALID,96.1727,VALID,-0.0169808,VALID,18.8678,VALID,47,VALID,0.939019,
2002-01-13, 03:02:00,VALID,915.433,VALID,0,VALID,96.221,VALID,0,VALID,18.8381,VALID,42,VALID,0.854167,
2002-01-13, 03:03:00,VALID,915.42,VALID,0,VALID,96.2401,VALID,0,VALID,18.7993,VALID,41,VALID,0.671274,
2002-01-13, 03:04:00,VALID,915.416,VALID,0,VALID,96.3724,VALID,-0.0339617,VALID,18.7806,VALID,39,VALID,0.594643,
2002-01-13, 03:05:00,VALID,915.409,VALID,0,VALID,96.6979,VALID,-0.0169808,VALID,18.7901,VALID,54,VALID,0.745144,
2002-01-13, 03:06:00,VALID,915.391,VALID,0,VALID,96.839,VALID,0,VALID,18.8219,VALID,15,VALID,0.73058,
2002-01-13, 03:07:00,VALID,915.386,VALID,0,VALID,96.6737,VALID,-0.0169808,VALID,18.8512,VALID,13,VALID,0.77105,
2002-01-13, 03:08:00,VALID,915.375,VALID,0,VALID,96.6966,VALID,0.0339617,VALID,18.8401,VALID,6,VALID,0.89383,
2002-01-13, 03:09:00,VALID,915.373,VALID,0,VALID,96.6954,VALID,0.0509425,VALID,18.8855,VALID,10,VALID,0.760268,
2002-01-13, 03:10:00,VALID,915.362,VALID,0,VALID,96.6356,VALID,0,VALID,18.8955,VALID,11,VALID,0.500845,
2002-01-13, 03:11:00,VALID,915.353,VALID,0,VALID,96.5873,VALID,0,VALID,18.8987,VALID,11,VALID,0.359152,
2002-01-13, 03:12:00,VALID,915.347,VALID,0,VALID,96.661,VALID,0.0339617,VALID,18.9186,VALID,17,VALID,0.342231,
2002-01-13, 03:13:00,VALID,915.346,VALID,0,VALID,96.5835,VALID,0.0339617,VALID,18.9278,VALID,21,VALID,0.166016,
2002-01-13, 03:14:00,VALID,915.34,VALID,0,VALID,96.4652,VALID,0.0509425,VALID,18.931,VALID,21,VALID,0.0234375,
2002-01-13, 03:15:00,VALID,915.341,VALID,0,VALID,96.4169,VALID,0,VALID,18.9211,VALID,21,VALID,0,
2002-01-13, 03:16:00,VALID,915.358,VALID,0,VALID,96.2973,VALID,0.0169808,VALID,18.9183,VALID,21,VALID,0,
2002-01-13, 03:17:00,VALID,915.359,VALID,0,VALID,96.113,VALID,0.0679233,VALID,18.8853,VALID,21,VALID,0,
2002-01-13, 03:18:00,VALID,915.36,VALID,0,VALID,95.8192,VALID,0.0339617,VALID,18.8438,VALID,21,VALID,0,
2002-01-13, 03:19:00,VALID,915.369,VALID,0,VALID,95.1224,VALID,0.0679233,VALID,18.7568,VALID,21,VALID,0,
2002-01-13, 03:20:00,VALID,915.356,VALID,0,VALID,95.0664,VALID,0.0169808,VALID,18.6563,VALID,21,VALID,0,
2002-01-13, 03:21:00,VALID,915.339,VALID,0,VALID,95.715,VALID,0.0169808,VALID,18.6113,VALID,26,VALID,0.452455,
2002-01-13, 03:22:00,VALID,915.341,VALID,0,VALID,96.085,VALID,-0.0509425,VALID,18.612,VALID,46,VALID,0.517144,
2002-01-13, 03:23:00,VALID,915.337,VALID,0,VALID,96.3787,VALID,-0.0679233,VALID,18.5804,VALID,46,VALID,0.488782,
2002-01-13, 03:24:00,VALID,915.327,VALID,0,VALID,96.6903,VALID,-0.0509425,VALID,18.5931,VALID,46,VALID,0.473437,
2002-01-13, 03:25:00,VALID,915.351,VALID,0,VALID,96.7144,VALID,-0.101885,VALID,18.5672,VALID,46,VALID,0.574958,
2002-01-13, 03:26:00,VALID,915.362,VALID,0,VALID,97.0133,VALID,-0.0169808,VALID,18.57,VALID,53,VALID,0.509375,
2002-01-13, 03:27:00,VALID,915.356,VALID,0,VALID,97.3006,VALID,-0.0169808,VALID,18.603,VALID,82,VALID,0.701172,
2002-01-13, 03:28:00,VALID,915.355,VALID,0,VALID,97.4774,VALID,-0.0169808,VALID,18.6517,VALID,95,VALID,0.849826,
2002-01-13, 03:29:00,VALID,915.364,VALID,0,VALID,97.5232,VALID,-0.0509425,VALID,18.677,VALID,103,VALID,0.890842,
2002-01-13, 03:30:00,VALID,915.357,VALID,0,VALID,97.6389,VALID,-0.101885,VALID,18.7486,VALID,108,VALID,0.878495,
2002-01-13, 03:31:00,VALID,915.353,VALID,0,VALID,97.4494,VALID,-0.0509425,VALID,18.797,VALID,111,VALID,1.0115,
2002-01-13, 03:32:00,VALID,915.345,VALID,0,VALID,97.2015,VALID,-0.0169808,VALID,18.8353,VALID,118,VALID,1.03516,
2002-01-13, 03:33:00,VALID,915.331,VALID,0,VALID,96.8162,VALID,-0.0339617,VALID,18.8678,VALID,114,VALID,0.779247,
2002-01-13, 03:34:00,VALID,915.327,VALID,0,VALID,96.5555,VALID,-0.0849042,VALID,18.8877,VALID,119,VALID,1.02969,
2002-01-13, 03:35:00,VALID,915.288,VALID,0,VALID,96.2477,VALID,-0.0679233,VALID,18.8874,VALID,116,VALID,1.23247,
2002-01-13, 03:36:00,VALID,915.264,VALID,0,VALID,96.0888,VALID,-0.0339617,VALID,18.8681,VALID,124,VALID,0.996875,